Weather History for Iliamna, AK

Change the Weather History Date:

Wednesday, July 3, 2013

  Actual Average Record
Temperature  
Mean Temperature 50 °F -  
Max Temperature 54 °F 60 °F 76 °F (1979)
Min Temperature 46 °F 47 °F 40 °F (1947)
Degree Days  
Heating Degree Days 15    
Moisture  
Dew Point 47 °F    
Average Humidity 93    
Maximum Humidity 100    
Minimum Humidity 77    
Precipitation  
Precipitation 0.12 in - - ()
Sea Level Pressure  
Sea Level Pressure 29.94 in    
Wind  
Wind Speed 6 mph (ESE)    
Max Wind Speed 20 mph    
Max Gust Speed 29 mph    
Visibility 9 miles    
Events Fog , Rain    
Averages and records for this station are not official NWS values.
T = Trace of Precipitation, MM = Missing Value Source: NWS Daily Summary

Daily Weather History Graph

Daily Weather History Graph

Search for Another Location

Airport:

Trip Planner

Search our weather history database for the weather conditions in past years. The results will help you decide how hot, cold, wet, or windy it might be!

Date:

Astronomy

Jul. 03, 2013 Rise Set
Actual Time 5:07 AM AKDT 11:39 PM AKDT
Civil Twilight 3:36 AM AKDT 1:09 AM AKDT
Nautical Twilight Sun does not rise Sun does not rise
Astronomical Twilight Sun does not rise Sun does not rise
Moon 2:31 AM AKDT (7/3) 7:29 PM AKDT (7/3)
Length of Visible Light 21h 32m
Length of Day
18h 32m
Waning Crescent, 17% of the Moon is Illuminated
Jul 3
Waning Crescent
Jul 7
New
Jul 15
First Quarter
Jul 22
Full
Jul 29
Last Quarter

Hourly Weather History & Observations

Time (AKDT) Temp. Windchill Dew Point Humidity Pressure Visibility Wind Dir Wind Speed Gust Speed Precip Events Conditions
12:01 AM 48.2 °F - 48.2 °F 100% 29.89 in 10.0 mi ESE 4.6 mph - 0.00 in Rain Light Rain
12:53 AM 48.0 °F - 48.0 °F 100% 29.91 in 7.0 mi ESE 4.6 mph - 0.01 in Rain Light Rain
1:19 AM 48.2 °F - 48.2 °F 100% 29.91 in 9.0 mi South 3.5 mph - 0.00 in Rain Light Rain
1:46 AM 48.2 °F - 48.2 °F 100% 29.92 in 10.0 mi Calm Calm - 0.01 in   Overcast
1:53 AM 48.0 °F - 46.9 °F 96% 29.93 in 10.0 mi Calm Calm - 0.01 in   Overcast
2:30 AM 46.4 °F - 46.4 °F 100% 29.93 in 4.0 mi Calm Calm - 0.02 in Rain Rain
2:41 AM 48.2 °F - 46.4 °F 93% 29.93 in 3.0 mi Calm Calm - 0.04 in Rain Rain
2:50 AM 46.4 °F - 46.4 °F 100% 29.93 in 5.0 mi Calm Calm - 0.05 in Rain Light Rain
2:53 AM 46.9 °F - 46.9 °F 100% 29.94 in 6.0 mi Calm Calm - 0.05 in Rain Light Rain
3:00 AM 46.4 °F - 46.4 °F 100% 29.93 in 7.0 mi Calm Calm - 0.00 in Rain Light Rain
3:23 AM 48.2 °F - 48.2 °F 100% 29.93 in 10.0 mi ESE 4.6 mph - 0.00 in   Overcast
3:53 AM 48.0 °F - 48.0 °F 100% 29.94 in 5.0 mi Calm Calm - 0.01 in Rain Light Rain
4:12 AM 48.2 °F - 48.2 °F 100% 29.94 in 5.0 mi Calm Calm - 0.01 in Rain Light Rain
4:53 AM 46.9 °F - 46.9 °F 100% 29.95 in 8.0 mi WSW 3.5 mph - 0.03 in Rain Light Rain
5:01 AM 46.4 °F 45.2 °F 46.4 °F 100% 29.94 in 10.0 mi WSW 3.5 mph - 0.00 in Rain Light Rain
5:41 AM 46.4 °F - 46.4 °F 100% 29.94 in 7.0 mi Calm Calm - 0.04 in Rain Light Rain
5:53 AM 46.9 °F - 46.9 °F 100% 29.95 in 9.0 mi Calm Calm - 0.05 in Rain Light Rain
6:34 AM 46.4 °F - 46.4 °F 100% 29.95 in 10.0 mi Calm Calm - 0.01 in Rain Light Rain
6:53 AM 48.0 °F - 48.0 °F 100% 29.96 in 10.0 mi SE 6.9 mph - 0.02 in Rain Light Rain
7:53 AM 48.0 °F - 48.0 °F 100% 29.96 in 8.0 mi East 5.8 mph - 0.02 in Rain Light Rain
8:53 AM 48.0 °F - 46.9 °F 96% 29.96 in 10.0 mi East 5.8 mph - 0.00 in   Overcast
9:53 AM 48.9 °F - 46.9 °F 93% 29.97 in 10.0 mi ESE 6.9 mph - N/A   Overcast
10:53 AM 50.0 °F - 46.9 °F 89% 29.97 in 10.0 mi ESE 8.1 mph - N/A   Overcast
11:27 AM 51.8 °F - 48.2 °F 88% 29.96 in 10.0 mi East 6.9 mph - N/A   Overcast
11:53 AM 51.1 °F - 46.9 °F 86% 29.96 in 10.0 mi ESE 10.4 mph - N/A   Overcast
12:53 PM 52.0 °F - 46.9 °F 83% 29.96 in 10.0 mi East 16.1 mph 21.9 mph N/A   Overcast
1:53 PM 54.0 °F - 46.9 °F 77% 29.97 in 10.0 mi East 19.6 mph 26.5 mph N/A   Mostly Cloudy
2:23 PM 51.8 °F - 46.4 °F 82% 29.96 in 10.0 mi East 13.8 mph 21.9 mph N/A   Overcast
2:36 PM 51.8 °F - 46.4 °F 82% 29.96 in 10.0 mi East 12.7 mph 19.6 mph N/A   Overcast
2:53 PM 52.0 °F - 46.9 °F 83% 29.96 in 10.0 mi East 16.1 mph 23.0 mph N/A   Overcast
3:22 PM 51.8 °F - 46.4 °F 82% 29.96 in 10.0 mi East 15.0 mph 28.8 mph 0.00 in   Overcast
3:53 PM 50.0 °F - 46.0 °F 86% 29.96 in 10.0 mi East 17.3 mph 25.3 mph 0.00 in Rain Light Rain
4:53 PM 50.0 °F - 46.0 °F 86% 29.96 in 9.0 mi East 16.1 mph 24.2 mph 0.01 in Fog , Rain Light Rain
5:53 PM 50.0 °F - 46.0 °F 86% 29.94 in 10.0 mi East 19.6 mph 26.5 mph 0.02 in Fog , Rain Light Rain
6:05 PM 50.0 °F - 46.4 °F 87% 29.93 in 10.0 mi East 17.3 mph 27.6 mph 0.00 in Fog , Rain Light Rain
6:53 PM 50.0 °F - 46.0 °F 86% 29.94 in 10.0 mi East 17.3 mph - 0.00 in Rain Light Rain
7:53 PM 50.0 °F - 46.0 °F 86% 29.93 in 10.0 mi East 15.0 mph 21.9 mph 0.01 in Rain Light Rain
8:53 PM 50.0 °F - 46.0 °F 86% 29.92 in 10.0 mi East 13.8 mph 23.0 mph 0.00 in Rain Light Rain
9:53 PM 48.9 °F - 46.0 °F 90% 29.92 in 10.0 mi East 12.7 mph - 0.00 in Rain Light Rain
10:53 PM 48.0 °F - 46.0 °F 93% 29.92 in 10.0 mi ENE 12.7 mph - 0.01 in Rain Light Rain
11:50 PM 48.2 °F - 46.4 °F 93% 29.92 in 10.0 mi East 10.4 mph - 0.02 in Rain Light Rain
11:53 PM 48.0 °F - 46.0 °F 93% 29.93 in 10.0 mi East 9.2 mph - 0.02 in Rain Light Rain